When you browse on this site, cookies collect data to enhance your experience and personalize the content and advertising you see.
Visit our Privacy Policy to learn more. By continuing to use the site, you agree to this use of cookies and data.
  • En España
  • Lista de países
  • Para 7 días
  • Temperatura del agua
  • Mapa Satelital
  • El tiempo en el mapa
  • Informadores
  • user-avatar
    Iniciar sesión

    Tiempo cada hora Cape Coast

    Hoy, 16 Enero, Miércoles

    Tiempo Temperatura Precipitaciones Viento Presión Humedad
    00:00 +28°C° 0 mm 3 mps 758 mmHg 88%
    01:00 +28°C° 0.1 mm 3 mps 758 mmHg 89%
    02:00 +28°C° 0.1 mm 3 mps 758 mmHg 90%
    03:00 +28°C° 0.1 mm 3 mps 758 mmHg 90%
    04:00 +28°C° 0 mm 2 mps 758 mmHg 90%
    05:00 +28°C° 0 mm 2 mps 757 mmHg 91%
    06:00 +28°C° 0 mm 2 mps 758 mmHg 91%
    07:00 +29°C° 0 mm 2 mps 758 mmHg 85%
    08:00 +30°C° 0 mm 2 mps 758 mmHg 78%
    09:00 +31°C° 0 mm 2 mps 759 mmHg 72%
    10:00 +33°C° 0.2 mm 3 mps 758 mmHg 67%
    11:00 +34°C° 0.2 mm 3 mps 758 mmHg 63%
    12:00 +35°C° 0 mm 4 mps 758 mmHg 59%
    13:00 +35°C° 0.4 mm 4 mps 757 mmHg 60%
    14:00 +35°C° 0.4 mm 4 mps 757 mmHg 61%
    15:00 +35°C° 0.4 mm 5 mps 757 mmHg 62%
    16:00 +33°C° 0.1 mm 5 mps 757 mmHg 67%
    17:00 +32°C° 0.1 mm 5 mps 756 mmHg 71%
    18:00 +30°C° 0.1 mm 5 mps 756 mmHg 76%
    19:00 +30°C° 0 mm 5 mps 757 mmHg 77%
    20:00 +30°C° 0 mm 5 mps 757 mmHg 79%
    21:00 +29°C° 0 mm 5 mps 758 mmHg 80%
    22:00 +29°C° 0 mm 4 mps 758 mmHg 82%
    23:00 +29°C° 0 mm 4 mps 758 mmHg 83%

    Mañana, 17 Enero, Jueves

    Tiempo Temperatura Precipitaciones Viento Presión Humedad
    00:00 +29°C° 0 mm 4 mps 758 mmHg 84%
    01:00 +28°C° 0 mm 4 mps 758 mmHg 85%
    02:00 +28°C° 0 mm 4 mps 758 mmHg 86%
    03:00 +28°C° 0 mm 3 mps 757 mmHg 87%
    04:00 +28°C° 0 mm 3 mps 757 mmHg 88%
    05:00 +28°C° 0 mm 3 mps 757 mmHg 89%
    06:00 +28°C° 0 mm 3 mps 757 mmHg 90%
    07:00 +29°C° 0 mm 3 mps 758 mmHg 83%
    08:00 +30°C° 0 mm 3 mps 759 mmHg 77%
    09:00 +32°C° 0 mm 4 mps 759 mmHg 71%
    10:00 +34°C° 0 mm 4 mps 759 mmHg 65%
    11:00 +35°C° 0 mm 4 mps 759 mmHg 60%
    12:00 +36°C° 0 mm 4 mps 758 mmHg 54%
    13:00 +36°C° 0.2 mm 4 mps 758 mmHg 56%
    14:00 +35°C° 0.2 mm 5 mps 757 mmHg 58%
    15:00 +35°C° 0.2 mm 5 mps 756 mmHg 60%
    16:00 +34°C° 0 mm 6 mps 756 mmHg 64%
    17:00 +33°C° 0 mm 6 mps 757 mmHg 69%
    18:00 +32°C° 0 mm 6 mps 757 mmHg 74%
    19:00 +30°C° 0 mm 6 mps 757 mmHg 76%
    20:00 +30°C° 0 mm 5 mps 758 mmHg 78%
    21:00 +29°C° 0 mm 5 mps 758 mmHg 80%
    22:00 +29°C° 0 mm 5 mps 758 mmHg 81%
    23:00 +29°C° 0 mm 5 mps 758 mmHg 82%

    Pasado mañana, 18 Enero, Viernes

    Tiempo Temperatura Precipitaciones Viento Presión Humedad
    00:00 +29°C° 0 mm 5 mps 758 mmHg 83%
    01:00 +29°C° 0 mm 4 mps 758 mmHg 84%
    02:00 +28°C° 0 mm 4 mps 758 mmHg 85%
    03:00 +28°C° 0 mm 4 mps 757 mmHg 85%
    04:00 +28°C° 0 mm 4 mps 757 mmHg 86%
    05:00 +28°C° 0 mm 4 mps 757 mmHg 86%
    06:00 +28°C° 0 mm 4 mps 758 mmHg 87%
    07:00 +29°C° 0 mm 4 mps 758 mmHg 81%
    08:00 +30°C° 0 mm 4 mps 759 mmHg 75%
    09:00 +33°C° 0 mm 4 mps 759 mmHg 69%
    10:00 +33°C° 0 mm 5 mps 759 mmHg 67%
    11:00 +34°C° 0 mm 5 mps 759 mmHg 64%
    12:00 +34°C° 0 mm 5 mps 758 mmHg 61%
    13:00 +34°C° 0.5 mm 5 mps 758 mmHg 61%
    14:00 +34°C° 0.5 mm 5 mps 757 mmHg 62%
    15:00 +34°C° 0.5 mm 6 mps 756 mmHg 62%
    16:00 +33°C° 0 mm 5 mps 757 mmHg 66%
    17:00 +32°C° 0 mm 5 mps 757 mmHg 70%
    18:00 +30°C° 0 mm 5 mps 757 mmHg 74%
    19:00 +30°C° 0 mm 5 mps 758 mmHg 76%
    20:00 +29°C° 0 mm 4 mps 759 mmHg 79%
    21:00 +29°C° 0 mm 4 mps 759 mmHg 82%
    22:00 +29°C° 0 mm 4 mps 759 mmHg 83%
    23:00 +28°C° 0 mm 4 mps 759 mmHg 84%

    19 Enero, Sábado

    Tiempo Temperatura Precipitaciones Viento Presión Humedad
    00:00 +28°C° 0 mm 3 mps 759 mmHg 85%
    01:00 +28°C° 0 mm 3 mps 758 mmHg 86%
    02:00 +28°C° 0 mm 3 mps 758 mmHg 86%
    03:00 +27°C° 0 mm 3 mps 757 mmHg 87%
    04:00 +27°C° 0 mm 3 mps 758 mmHg 88%
    05:00 +27°C° 0 mm 3 mps 758 mmHg 88%
    06:00 +27°C° 0 mm 3 mps 758 mmHg 89%
    07:00 +28°C° 0 mm 3 mps 759 mmHg 83%
    08:00 +30°C° 0 mm 3 mps 759 mmHg 76%
    09:00 +32°C° 0 mm 4 mps 760 mmHg 69%
    10:00 +33°C° 0 mm 4 mps 759 mmHg 64%
    11:00 +34°C° 0 mm 4 mps 759 mmHg 59%
    12:00 +36°C° 0 mm 4 mps 758 mmHg 54%
    13:00 +35°C° 0.1 mm 4 mps 758 mmHg 55%
    14:00 +35°C° 0.1 mm 5 mps 757 mmHg 56%
    15:00 +35°C° 0.1 mm 5 mps 757 mmHg 57%
    16:00 +34°C° 0.2 mm 5 mps 757 mmHg 62%
    17:00 +33°C° 0.2 mm 5 mps 757 mmHg 67%
    18:00 +32°C° 0.2 mm 5 mps 758 mmHg 73%
    19:00 +30°C° 0.1 mm 5 mps 758 mmHg 75%
    20:00 +30°C° 0.1 mm 5 mps 759 mmHg 78%
    21:00 +29°C° 0.1 mm 5 mps 759 mmHg 81%
    22:00 +29°C° 0 mm 4 mps 759 mmHg 82%
    23:00 +28°C° 0 mm 4 mps 759 mmHg 83%

    20 Enero, Domingo

    Tiempo Temperatura Precipitaciones Viento Presión Humedad
    00:00 +28°C° 0 mm 4 mps 759 mmHg 84%
    01:00 +28°C° 0 mm 3 mps 758 mmHg 85%
    02:00 +28°C° 0 mm 3 mps 758 mmHg 86%
    03:00 +27°C° 0 mm 2 mps 757 mmHg 87%
    04:00 +27°C° 0 mm 2 mps 758 mmHg 87%
    05:00 +27°C° 0 mm 2 mps 758 mmHg 88%
    06:00 +27°C° 0 mm 2 mps 759 mmHg 89%
    07:00 +28°C° 0 mm 2 mps 759 mmHg 83%
    08:00 +29°C° 0 mm 3 mps 760 mmHg 77%
    09:00 +31°C° 0 mm 3 mps 760 mmHg 71%
    10:00 +33°C° 0 mm 3 mps 760 mmHg 64%
    11:00 +34°C° 0 mm 3 mps 759 mmHg 58%
    12:00 +36°C° 0 mm 3 mps 759 mmHg 51%
    13:00 +35°C° 0.6 mm 4 mps 758 mmHg 54%
    14:00 +35°C° 0.6 mm 4 mps 758 mmHg 57%
    15:00 +34°C° 0.6 mm 5 mps 757 mmHg 60%
    16:00 +33°C° 0.1 mm 5 mps 757 mmHg 63%
    17:00 +33°C° 0.1 mm 4 mps 758 mmHg 66%
    18:00 +32°C° 0.1 mm 4 mps 758 mmHg 69%
    19:00 +30°C° 0 mm 4 mps 758 mmHg 72%
    20:00 +30°C° 0 mm 5 mps 759 mmHg 75%
    21:00 +29°C° 0 mm 5 mps 760 mmHg 78%
    22:00 +29°C° 0.1 mm 4 mps 760 mmHg 79%
    23:00 +29°C° 0.1 mm 4 mps 759 mmHg 80%

    21 Enero, Lunes

    Tiempo Temperatura Precipitaciones Viento Presión Humedad
    00:00 +28°C° 0.1 mm 3 mps 759 mmHg 81%
    01:00 +28°C° 0.1 mm 3 mps 759 mmHg 82%
    02:00 +28°C° 0.1 mm 3 mps 758 mmHg 83%
    03:00 +28°C° 0.1 mm 3 mps 758 mmHg 84%
    04:00 +28°C° 0 mm 3 mps 758 mmHg 84%
    05:00 +27°C° 0 mm 3 mps 758 mmHg 85%
    06:00 +27°C° 0 mm 3 mps 759 mmHg 85%
    07:00 +29°C° 0.3 mm 3 mps 759 mmHg 80%
    08:00 +30°C° 0.3 mm 3 mps 759 mmHg 74%
    09:00 +31°C° 0.3 mm 3 mps 760 mmHg 68%
    10:00 +33°C° 0.1 mm 4 mps 759 mmHg 63%
    11:00 +34°C° 0.1 mm 4 mps 759 mmHg 59%
    12:00 +35°C° 0.1 mm 4 mps 758 mmHg 54%
    13:00 +35°C° 0.2 mm 4 mps 758 mmHg 54%
    14:00 +35°C° 0.2 mm 4 mps 757 mmHg 55%
    15:00 +35°C° 0.2 mm 4 mps 757 mmHg 55%
    16:00 +34°C° 0 mm 4 mps 757 mmHg 59%
    17:00 +33°C° 0 mm 4 mps 757 mmHg 63%
    18:00 +32°C° 0 mm 4 mps 757 mmHg 67%
    19:00 +32°C° 0 mm 4 mps 758 mmHg 70%
    20:00 +30°C° 0 mm 4 mps 758 mmHg 72%
    21:00 +30°C° 0 mm 4 mps 758 mmHg 75%
    22:00 +29°C° 0 mm 4 mps 758 mmHg 77%
    23:00 +29°C° 0 mm 4 mps 758 mmHg 79%
    Mostrar más